DLH472 SBEG-SUMU

Flight info

Callsign DLH472
Flight time N/A
Altitude 38000
Route DCT DEMIT UM402 UBKAB/N0468F390 UM402 SIDAK/N0468F380 UM402 VUDUP DCT ANRUP DCT EGLEN DCT
Aircraft A346/H-SDE2E3FGHIJ3J4J5M1RWXY/LB1D1

Departure

Time 2026-04-25 20:05
Airport Eduardo Gomes International Airport (SBEG)

Arrival

Time N/A
Airport Carrasco General Cesáreo L. Berisso International Airport (SUMU)
Time Latitude Longitude Altitude Speed Heading
2026-04-25 19:39 -3.03272 -60.03940 311 ft 0 kts 77°
2026-04-25 19:54 -3.03272 -60.03938 310 ft 1 kts 77°
2026-04-25 19:55 -3.03267 -60.03928 311 ft 0 kts 42°
2026-04-25 19:55 -3.03252 -60.03920 313 ft 3 kts 360°
2026-04-25 19:55 -3.03227 -60.03933 313 ft 8 kts 309°
2026-04-25 19:55 -3.03215 -60.04016 309 ft 14 kts 260°
2026-04-25 19:56 -3.03235 -60.04117 312 ft 16 kts 257°
2026-04-25 19:56 -3.03262 -60.04216 312 ft 15 kts 253°
2026-04-25 19:56 -3.03293 -60.04318 309 ft 14 kts 252°
2026-04-25 19:56 -3.03324 -60.04416 309 ft 16 kts 252°
2026-04-25 19:57 -3.03348 -60.04531 309 ft 18 kts 261°
2026-04-25 19:57 -3.03354 -60.04652 309 ft 14 kts 250°
2026-04-25 19:57 -3.03384 -60.04764 309 ft 19 kts 249°
2026-04-25 19:57 -3.03469 -60.04872 308 ft 21 kts 223°
2026-04-25 19:58 -3.03562 -60.04978 307 ft 19 kts 228°
2026-04-25 19:58 -3.03609 -60.05103 306 ft 28 kts 255°
2026-04-25 19:58 -3.03659 -60.05302 307 ft 29 kts 256°
2026-04-25 19:58 -3.03691 -60.05505 307 ft 29 kts 267°
2026-04-25 19:59 -3.03694 -60.05710 306 ft 29 kts 271°
2026-04-25 19:59 -3.03691 -60.05914 305 ft 29 kts 271°
2026-04-25 19:59 -3.03698 -60.06099 302 ft 19 kts 252°
2026-04-25 19:59 -3.03773 -60.06159 304 ft 14 kts 181°
2026-04-25 20:00 -3.03830 -60.06153 305 ft 6 kts 157°
2026-04-25 20:00 -3.03841 -60.06144 305 ft 6 kts 133°
2026-04-25 20:00 -3.03853 -60.06116 302 ft 1 kts 99°
2026-04-25 20:00 -3.03855 -60.06107 304 ft 0 kts 97°
2026-04-25 20:02 -3.03857 -60.06084 303 ft 18 kts 94°
2026-04-25 20:02 -3.03858 -60.06061 303 ft 0 kts 92°
2026-04-25 20:04 -3.03859 -60.06050 303 ft 14 kts 92°
2026-04-25 20:04 -3.03851 -60.05639 306 ft 102 kts 90°
2026-04-25 20:04 -3.03859 -60.04668 308 ft 173 kts 90°
2026-04-25 20:05 -3.03854 -60.03290 521 ft 212 kts 90°
2026-04-25 20:05 -3.03848 -60.01774 1224 ft 224 kts 90°
2026-04-25 20:05 -3.03852 -60.00157 2022 ft 240 kts 93°
2026-04-25 20:05 -3.04241 -59.98573 2866 ft 238 kts 118°
2026-04-25 20:06 -3.05284 -59.97320 3732 ft 236 kts 148°
2026-04-25 20:06 -3.06872 -59.96794 4318 ft 250 kts 173°
2026-04-25 20:06 -3.08665 -59.96639 4811 ft 268 kts 175°
2026-04-25 20:06 -3.10579 -59.96504 5353 ft 281 kts 176°
2026-04-25 20:07 -3.12552 -59.96367 6228 ft 284 kts 176°
2026-04-25 20:07 -3.14526 -59.96229 7057 ft 286 kts 176°
2026-04-25 20:07 -3.16524 -59.96086 7784 ft 290 kts 175°
2026-04-25 20:07 -3.18548 -59.95939 8512 ft 294 kts 175°
2026-04-25 20:08 -3.20570 -59.95790 9232 ft 297 kts 175°
2026-04-25 20:08 -3.22647 -59.95638 9754 ft 302 kts 175°
2026-04-25 20:08 -3.24764 -59.95481 10290 ft 308 kts 175°
2026-04-25 20:08 -3.26957 -59.95318 10668 ft 324 kts 175°
2026-04-25 20:09 -3.29263 -59.95147 10938 ft 341 kts 175°
2026-04-25 20:09 -3.31684 -59.94966 11233 ft 358 kts 175°
2026-04-25 20:09 -3.34223 -59.94777 11507 ft 374 kts 175°
2026-04-25 20:09 -3.36837 -59.94583 11779 ft 389 kts 175°
2026-04-25 20:10 -3.39571 -59.94380 12262 ft 397 kts 175°
2026-04-25 20:10 -3.42341 -59.94174 12924 ft 400 kts 175°
2026-04-25 20:10 -3.45126 -59.93968 13576 ft 404 kts 175°
2026-04-25 20:10 -3.47481 -59.93793 14046 ft 407 kts 175°
2026-04-25 20:11 -3.49227 -59.93664 14378 ft 410 kts 175°
2026-04-25 20:11 -3.52082 -59.93452 14925 ft 413 kts 175°
2026-04-25 20:11 -3.54919 -59.93242 15464 ft 417 kts 175°
2026-04-25 20:11 -3.57828 -59.93026 15985 ft 421 kts 175°
2026-04-25 20:12 -3.60758 -59.92808 16505 ft 424 kts 175°
2026-04-25 20:12 -3.63719 -59.92588 17021 ft 428 kts 175°
2026-04-25 20:12 -3.66698 -59.92366 17530 ft 431 kts 175°
2026-04-25 20:12 -3.67709 -59.92291 17694 ft 433 kts 175°
2026-04-25 20:13 -3.72735 -59.91917 18456 ft 439 kts 175°
2026-04-25 20:13 -3.75789 -59.91690 18867 ft 442 kts 175°
2026-04-25 20:13 -3.78858 -59.91462 19285 ft 445 kts 175°
2026-04-25 20:13 -3.81972 -59.91230 19725 ft 447 kts 175°
2026-04-25 20:14 -3.85083 -59.90999 20138 ft 450 kts 174°
2026-04-25 20:14 -3.88233 -59.90764 20549 ft 453 kts 174°
2026-04-25 20:14 -3.90723 -59.90579 20870 ft 455 kts 174°
2026-04-25 20:14 -3.91574 -59.90516 20977 ft 456 kts 174°
2026-04-25 20:15 -3.94753 -59.90279 21379 ft 458 kts 174°
2026-04-25 20:15 -3.97927 -59.90043 21771 ft 461 kts 174°
2026-04-25 20:15 -4.01125 -59.89805 22169 ft 463 kts 174°
2026-04-25 20:15 -4.04344 -59.89566 22549 ft 466 kts 174°
2026-04-25 20:16 -4.07593 -59.89324 22925 ft 468 kts 174°
2026-04-25 20:16 -4.10872 -59.89081 23297 ft 471 kts 174°
2026-04-25 20:16 -4.14182 -59.88835 23619 ft 473 kts 174°
2026-04-25 20:16 -4.17476 -59.88590 23918 ft 476 kts 174°
2026-04-25 20:17 -4.18982 -59.88478 24066 ft 476 kts 174°
2026-04-25 20:17 -4.19947 -59.88407 24161 ft 477 kts 174°
2026-04-25 20:17 -4.22418 -59.88223 24403 ft 478 kts 174°
2026-04-25 20:17 -4.23811 -59.88119 24538 ft 478 kts 174°
2026-04-25 20:18 -4.27136 -59.87873 24858 ft 480 kts 174°
2026-04-25 20:18 -4.30476 -59.87624 25165 ft 482 kts 174°
2026-04-25 20:18 -4.33831 -59.87374 25467 ft 484 kts 174°
2026-04-25 20:18 -4.37196 -59.87123 25769 ft 486 kts 174°
2026-04-25 20:19 -4.40574 -59.86872 26076 ft 488 kts 174°
2026-04-25 20:19 -4.43966 -59.86620 26387 ft 490 kts 174°
2026-04-25 20:19 -4.47328 -59.86369 26688 ft 492 kts 174°
2026-04-25 20:19 -4.50752 -59.86115 26986 ft 494 kts 174°
2026-04-25 20:20 -4.54183 -59.85859 27281 ft 496 kts 174°
2026-04-25 20:20 -4.57627 -59.85603 27577 ft 497 kts 174°
2026-04-25 20:20 -4.61074 -59.85346 27974 ft 497 kts 174°
2026-04-25 20:20 -4.64517 -59.85089 28452 ft 494 kts 174°
2026-04-25 20:21 -4.67937 -59.84835 28933 ft 492 kts 174°
2026-04-25 20:21 -4.69385 -59.84728 29129 ft 491 kts 174°
2026-04-25 20:21 -4.72512 -59.84496 29519 ft 490 kts 173°
2026-04-25 20:21 -4.75912 -59.84243 29923 ft 489 kts 173°
2026-04-25 20:22 -4.79299 -59.83991 30291 ft 488 kts 173°
2026-04-25 20:22 -4.80446 -59.83905 30424 ft 488 kts 173°
2026-04-25 20:22 -4.86088 -59.83484 31081 ft 485 kts 173°
2026-04-25 20:22 -4.89450 -59.83233 31451 ft 484 kts 173°
2026-04-25 20:23 -4.92797 -59.82984 31818 ft 482 kts 173°
2026-04-25 20:23 -4.96098 -59.82737 32204 ft 481 kts 173°
2026-04-25 20:23 -4.99425 -59.82488 32596 ft 480 kts 173°
2026-04-25 20:23 -5.02746 -59.82240 32981 ft 479 kts 173°
2026-04-25 20:24 -5.06062 -59.81994 33394 ft 477 kts 173°
2026-04-25 20:24 -5.09389 -59.81746 33816 ft 476 kts 173°
2026-04-25 20:24 -5.12684 -59.81501 34169 ft 474 kts 173°
2026-04-25 20:24 -5.15966 -59.81256 34512 ft 473 kts 173°
2026-04-25 20:25 -5.19269 -59.81010 34845 ft 472 kts 173°
2026-04-25 20:25 -5.22540 -59.80766 35178 ft 471 kts 173°
2026-04-25 20:25 -5.25756 -59.80526 35506 ft 470 kts 173°
2026-04-25 20:25 -5.29017 -59.80282 35808 ft 469 kts 174°
2026-04-25 20:26 -5.32269 -59.80039 36099 ft 469 kts 174°
2026-04-25 20:26 -5.35559 -59.79793 36349 ft 469 kts 174°
2026-04-25 20:26 -5.37719 -59.79632 36512 ft 470 kts 174°
2026-04-25 20:26 -5.40986 -59.79389 36748 ft 471 kts 174°
2026-04-25 20:27 -5.44262 -59.79144 36991 ft 472 kts 174°
2026-04-25 20:27 -5.47539 -59.78900 37244 ft 472 kts 174°
2026-04-25 20:27 -5.51887 -59.78575 37553 ft 473 kts 174°
2026-04-25 20:27 -5.55192 -59.78328 37769 ft 474 kts 174°
2026-04-25 20:28 -5.61791 -59.77835 37862 ft 476 kts 174°
2026-04-25 20:28 -5.67290 -59.77424 37868 ft 477 kts 174°
2026-04-25 20:29 -5.73926 -59.76929 37869 ft 477 kts 174°
2026-04-25 20:29 -5.81715 -59.76347 37867 ft 477 kts 174°
2026-04-25 20:30 -5.87262 -59.75932 37868 ft 477 kts 174°
2026-04-25 20:30 -5.93834 -59.75440 37873 ft 477 kts 174°
2026-04-25 20:31 -6.00466 -59.74943 37865 ft 478 kts 174°
2026-04-25 20:31 -6.07097 -59.74448 37860 ft 478 kts 174°
2026-04-25 20:32 -6.13733 -59.73951 37871 ft 478 kts 174°
2026-04-25 20:32 -6.18646 -59.73583 37858 ft 478 kts 174°
2026-04-25 20:33 -6.25277 -59.73088 37866 ft 478 kts 174°
2026-04-25 20:33 -6.30806 -59.72673 37861 ft 480 kts 174°
2026-04-25 20:34 -6.38558 -59.72093 37872 ft 480 kts 174°
2026-04-25 20:34 -6.45227 -59.71594 37861 ft 480 kts 174°
2026-04-25 20:35 -6.51888 -59.71095 37862 ft 480 kts 174°
2026-04-25 20:35 -6.58559 -59.70595 37871 ft 480 kts 174°
2026-04-25 20:36 -6.65232 -59.70095 37870 ft 481 kts 174°
2026-04-25 20:36 -6.71889 -59.69596 37870 ft 481 kts 174°
2026-04-25 20:37 -6.78560 -59.69096 37869 ft 481 kts 174°
2026-04-25 20:37 -6.85239 -59.68596 37871 ft 481 kts 174°
2026-04-25 20:38 -6.89604 -59.68268 37879 ft 481 kts 174°
2026-04-25 20:38 -6.96235 -59.67771 37869 ft 481 kts 174°
2026-04-25 20:39 -7.02910 -59.67271 37880 ft 481 kts 174°
2026-04-25 20:39 -7.08463 -59.66855 37879 ft 481 kts 174°
2026-04-25 20:40 -7.16268 -59.66272 37865 ft 481 kts 174°
2026-04-25 20:40 -7.22899 -59.65775 37877 ft 481 kts 174°
2026-04-25 20:41 -7.28190 -59.65277 37871 ft 482 kts 172°
2026-04-25 20:41 -7.34857 -59.64536 37875 ft 482 kts 172°
2026-04-25 20:42 -7.41527 -59.63802 37881 ft 482 kts 172°
2026-04-25 20:42 -7.47131 -59.63195 37869 ft 482 kts 172°
2026-04-25 20:43 -7.53762 -59.62481 37877 ft 482 kts 172°
2026-04-25 20:43 -7.60441 -59.61764 37866 ft 483 kts 172°
2026-04-25 20:44 -7.67125 -59.61047 37874 ft 483 kts 172°
2026-04-25 20:44 -7.73807 -59.60330 37876 ft 483 kts 172°
2026-04-25 20:45 -7.80449 -59.59616 37875 ft 483 kts 172°
2026-04-25 20:45 -7.87133 -59.58898 37868 ft 484 kts 173°
2026-04-25 20:46 -7.93846 -59.58176 37871 ft 486 kts 173°
2026-04-25 20:46 -8.00567 -59.57454 37876 ft 486 kts 173°
2026-04-25 20:47 -8.07255 -59.56735 37880 ft 486 kts 172°
2026-04-25 20:47 -8.13978 -59.56012 37877 ft 486 kts 172°
2026-04-25 20:48 -8.20705 -59.55286 37879 ft 485 kts 173°
2026-04-25 20:48 -8.27408 -59.54564 37879 ft 484 kts 173°
2026-04-25 20:49 -8.34104 -59.53845 37870 ft 484 kts 173°
2026-04-25 20:49 -8.40758 -59.53130 37870 ft 484 kts 173°
2026-04-25 20:50 -8.47451 -59.52408 37868 ft 484 kts 173°
2026-04-25 20:50 -8.54151 -59.51687 37871 ft 484 kts 173°
2026-04-25 20:51 -8.59042 -59.51161 37869 ft 484 kts 173°
2026-04-25 20:51 -8.65811 -59.50432 37871 ft 484 kts 173°
2026-04-25 20:52 -8.71418 -59.49826 37871 ft 483 kts 173°
2026-04-25 20:52 -8.79298 -59.48980 37874 ft 484 kts 173°
2026-04-25 20:53 -8.86004 -59.48256 37866 ft 485 kts 173°
2026-04-25 20:53 -8.92702 -59.47532 37874 ft 485 kts 173°
2026-04-25 20:54 -8.99473 -59.46802 37873 ft 486 kts 173°
2026-04-25 20:54 -9.06209 -59.46074 37870 ft 485 kts 173°
2026-04-25 20:55 -9.12975 -59.45342 37870 ft 485 kts 173°
2026-04-25 20:55 -9.19721 -59.44614 37874 ft 486 kts 173°
2026-04-25 20:56 -9.26415 -59.43889 37871 ft 486 kts 173°
2026-04-25 20:56 -9.33170 -59.43158 37876 ft 486 kts 173°
2026-04-25 20:57 -9.39942 -59.42426 37877 ft 486 kts 173°
2026-04-25 20:57 -9.46678 -59.41696 37874 ft 486 kts 173°
2026-04-25 20:58 -9.53425 -59.40965 37871 ft 487 kts 173°
2026-04-25 20:58 -9.60220 -59.40230 37876 ft 487 kts 173°
2026-04-25 20:59 -9.66977 -59.39499 37875 ft 487 kts 173°
2026-04-25 20:59 -9.73732 -59.38767 37874 ft 487 kts 173°
2026-04-25 21:00 -9.79335 -59.38108 37882 ft 488 kts 172°
2026-04-25 21:01 -9.90596 -59.36606 37874 ft 490 kts 172°
2026-04-25 21:01 -9.97414 -59.35708 37878 ft 490 kts 172°
2026-04-25 21:02 -10.04193 -59.34819 37881 ft 490 kts 172°
2026-04-25 21:02 -10.10925 -59.33938 37880 ft 490 kts 172°
2026-04-25 21:03 -10.17755 -59.33044 37878 ft 490 kts 172°
2026-04-25 21:03 -10.24549 -59.32154 37877 ft 490 kts 172°
2026-04-25 21:04 -10.31347 -59.31263 37885 ft 490 kts 172°
2026-04-25 21:04 -10.38077 -59.30382 37882 ft 490 kts 172°
2026-04-25 21:05 -10.44866 -59.29491 37887 ft 491 kts 172°
2026-04-25 21:05 -10.51724 -59.28593 37888 ft 491 kts 172°
2026-04-25 21:06 -10.58554 -59.27789 37881 ft 491 kts 173°
2026-04-25 21:06 -10.65330 -59.27025 37887 ft 491 kts 173°
2026-04-25 21:07 -10.72189 -59.26246 37892 ft 491 kts 173°
2026-04-25 21:07 -10.78986 -59.25468 37895 ft 492 kts 173°
2026-04-25 21:08 -10.85828 -59.24686 37885 ft 492 kts 173°
2026-04-25 21:08 -10.92606 -59.23910 37887 ft 492 kts 173°
2026-04-25 21:09 -11.02900 -59.22729 37891 ft 492 kts 173°
2026-04-25 21:09 -11.09762 -59.21940 37882 ft 491 kts 173°
2026-04-25 21:10 -11.16612 -59.21155 37889 ft 491 kts 173°
2026-04-25 21:10 -11.23396 -59.20376 37889 ft 491 kts 173°
2026-04-25 21:11 -11.30230 -59.19591 37882 ft 491 kts 173°
2026-04-25 21:11 -11.37056 -59.18806 37888 ft 491 kts 173°
2026-04-25 21:12 -11.43864 -59.18024 37888 ft 491 kts 173°
2026-04-25 21:12 -11.49576 -59.17367 37880 ft 490 kts 173°
2026-04-25 21:13 -11.57583 -59.16445 37885 ft 490 kts 173°
2026-04-25 21:13 -11.64371 -59.15664 37885 ft 490 kts 173°
2026-04-25 21:14 -11.71167 -59.14882 37878 ft 490 kts 173°
2026-04-25 21:14 -11.77971 -59.14098 37880 ft 490 kts 173°
2026-04-25 21:15 -11.84800 -59.13311 37893 ft 490 kts 173°
2026-04-25 21:15 -11.91593 -59.12529 37879 ft 490 kts 173°
2026-04-25 21:16 -11.98416 -59.11740 37885 ft 490 kts 173°
2026-04-25 21:16 -12.05158 -59.10960 37879 ft 490 kts 173°
2026-04-25 21:17 -12.11937 -59.10177 37877 ft 490 kts 173°
2026-04-25 21:17 -12.18745 -59.09391 37879 ft 490 kts 173°
2026-04-25 21:18 -12.25600 -59.08600 37878 ft 490 kts 173°
2026-04-25 21:18 -12.32391 -59.07817 37876 ft 490 kts 173°
2026-04-25 21:19 -12.39163 -59.07034 37881 ft 490 kts 173°
2026-04-25 21:19 -12.45940 -59.06251 37885 ft 490 kts 173°
2026-04-25 21:20 -12.51651 -59.05590 37893 ft 490 kts 173°
2026-04-25 21:20 -12.59627 -59.04668 37884 ft 490 kts 173°
2026-04-25 21:21 -12.66402 -59.03885 37897 ft 490 kts 173°
2026-04-25 21:21 -12.73221 -59.03096 37886 ft 490 kts 173°
2026-04-25 21:22 -12.80029 -59.02308 37890 ft 491 kts 173°
2026-04-25 21:22 -12.86855 -59.01511 37890 ft 491 kts 173°
2026-04-25 21:23 -12.93644 -59.00720 37892 ft 490 kts 173°
2026-04-25 21:23 -13.00406 -58.99932 37895 ft 490 kts 173°
2026-04-25 21:24 -13.07203 -58.99140 37899 ft 490 kts 173°
2026-04-25 21:24 -13.13998 -58.98348 37893 ft 490 kts 173°
2026-04-25 21:25 -13.20784 -58.97557 37889 ft 490 kts 173°
2026-04-25 21:25 -13.27516 -58.96772 37906 ft 490 kts 173°
2026-04-25 21:26 -13.34333 -58.95977 37897 ft 490 kts 173°
2026-04-25 21:26 -13.41126 -58.95184 37905 ft 490 kts 173°
2026-04-25 21:27 -13.47922 -58.94390 37900 ft 490 kts 173°
2026-04-25 21:27 -13.54721 -58.93597 37902 ft 489 kts 173°
2026-04-25 21:28 -13.61547 -58.92799 37908 ft 489 kts 173°
2026-04-25 21:28 -13.68373 -58.92002 37906 ft 489 kts 173°
2026-04-25 21:29 -13.75141 -58.91210 37914 ft 489 kts 173°
2026-04-25 21:29 -13.81927 -58.90415 37903 ft 489 kts 173°
2026-04-25 21:30 -13.88678 -58.89623 37915 ft 489 kts 173°
2026-04-25 21:30 -13.94379 -58.88953 37905 ft 489 kts 173°
2026-04-25 21:31 -14.02264 -58.88029 37915 ft 489 kts 173°
2026-04-25 21:31 -14.09056 -58.87234 37917 ft 489 kts 173°
2026-04-25 21:32 -14.15838 -58.86440 37905 ft 489 kts 172°
2026-04-25 21:32 -14.22543 -58.85650 37909 ft 488 kts 172°
2026-04-25 21:33 -14.29321 -58.84855 37915 ft 489 kts 172°
2026-04-25 21:33 -14.36114 -58.84058 37912 ft 489 kts 172°
2026-04-25 21:34 -14.42832 -58.83269 37906 ft 488 kts 172°
2026-04-25 21:34 -14.47348 -58.82740 37922 ft 488 kts 172°
2026-04-25 21:35 -14.52981 -58.82072 37908 ft 488 kts 172°
2026-04-25 21:35 -14.59721 -58.81272 37906 ft 488 kts 172°
2026-04-25 21:36 -14.65230 -58.80621 37924 ft 488 kts 172°
2026-04-25 21:36 -14.71723 -58.79855 37909 ft 488 kts 172°
2026-04-25 21:37 -14.75729 -58.79383 37904 ft 487 kts 172°
2026-04-25 21:37 -14.82594 -58.78570 37914 ft 487 kts 172°
2026-04-25 21:38 -14.89393 -58.77765 37906 ft 487 kts 172°
2026-04-25 21:38 -14.96080 -58.76973 37903 ft 487 kts 172°
2026-04-25 21:39 -15.02832 -58.76176 37910 ft 487 kts 172°
2026-04-25 21:39 -15.08475 -58.75507 37893 ft 486 kts 172°
2026-04-25 21:40 -15.15222 -58.74707 37905 ft 486 kts 172°
2026-04-25 21:40 -15.21903 -58.73914 37894 ft 486 kts 172°
2026-04-25 21:41 -15.28627 -58.73117 37893 ft 486 kts 172°
2026-04-25 21:41 -15.35345 -58.72322 37885 ft 485 kts 172°
2026-04-25 21:42 -15.42057 -58.71524 37889 ft 485 kts 172°
2026-04-25 21:42 -15.48717 -58.70730 37892 ft 485 kts 172°
2026-04-25 21:43 -15.55430 -58.69929 37877 ft 485 kts 172°
2026-04-25 21:43 -15.62162 -58.69128 37886 ft 485 kts 171°
2026-04-25 21:44 -15.68860 -58.68330 37887 ft 484 kts 171°
2026-04-25 21:45 -15.78875 -58.67136 37878 ft 484 kts 171°
2026-04-25 21:45 -15.85572 -58.66337 37874 ft 484 kts 171°
2026-04-25 21:46 -15.92265 -58.65540 37871 ft 483 kts 171°
2026-04-25 21:46 -15.98935 -58.64744 37875 ft 483 kts 171°
2026-04-25 21:47 -16.05563 -58.63951 37875 ft 482 kts 171°
2026-04-25 21:47 -16.12231 -58.63154 37878 ft 482 kts 171°
2026-04-25 21:48 -16.18898 -58.62357 37883 ft 482 kts 171°
2026-04-25 21:48 -16.25562 -58.61561 37868 ft 482 kts 171°
2026-04-25 21:49 -16.32185 -58.60768 37880 ft 482 kts 171°
2026-04-25 21:49 -16.38853 -58.59974 37874 ft 482 kts 171°
2026-04-25 21:50 -16.45518 -58.59182 37883 ft 482 kts 171°
2026-04-25 21:50 -16.52186 -58.58391 37866 ft 481 kts 171°
2026-04-25 21:51 -16.58791 -58.57607 37878 ft 481 kts 171°
2026-04-25 21:51 -16.65443 -58.56817 37869 ft 481 kts 171°
2026-04-25 21:52 -16.72099 -58.56026 37873 ft 481 kts 171°
2026-04-25 21:52 -16.78751 -58.55235 37863 ft 481 kts 172°
2026-04-25 21:53 -16.85390 -58.54443 37869 ft 480 kts 172°
2026-04-25 21:53 -16.91973 -58.53660 37877 ft 480 kts 172°
2026-04-25 21:54 -16.98605 -58.52870 37880 ft 480 kts 172°
2026-04-25 21:54 -17.05231 -58.52080 37874 ft 480 kts 172°
2026-04-25 21:55 -17.11863 -58.51288 37880 ft 479 kts 172°
2026-04-25 21:55 -17.18441 -58.50502 37874 ft 479 kts 172°
2026-04-25 21:56 -17.25068 -58.49711 37873 ft 479 kts 172°
2026-04-25 21:56 -17.31695 -58.48919 37882 ft 479 kts 172°
2026-04-25 21:57 -17.38319 -58.48124 37875 ft 479 kts 172°
2026-04-25 21:57 -17.44898 -58.47336 37883 ft 480 kts 172°
2026-04-25 21:58 -17.51531 -58.46542 37874 ft 480 kts 172°
2026-04-25 21:58 -17.58166 -58.45747 37875 ft 480 kts 172°
2026-04-25 21:59 -17.64803 -58.44950 37871 ft 480 kts 172°
2026-04-25 21:59 -17.71390 -58.44155 37881 ft 480 kts 172°
2026-04-25 22:00 -17.81337 -58.42962 37884 ft 480 kts 172°
2026-04-25 22:00 -17.87969 -58.42164 37889 ft 480 kts 172°
2026-04-25 22:01 -17.94598 -58.41365 37892 ft 480 kts 172°
2026-04-25 22:01 -18.00105 -58.40697 37895 ft 480 kts 173°
2026-04-25 22:02 -18.07821 -58.39769 37893 ft 480 kts 173°
2026-04-25 22:02 -18.14460 -58.38970 37899 ft 480 kts 173°
2026-04-25 22:03 -18.21098 -58.38168 37894 ft 480 kts 173°
2026-04-25 22:03 -18.27733 -58.37361 37893 ft 480 kts 173°
2026-04-25 22:04 -18.34319 -58.36566 37893 ft 480 kts 173°
2026-04-25 22:04 -18.40956 -58.35764 37900 ft 480 kts 173°
2026-04-25 22:05 -18.47594 -58.34961 37883 ft 480 kts 173°
2026-04-25 22:05 -18.54230 -58.34153 37889 ft 480 kts 173°
2026-04-25 22:06 -18.60825 -58.33353 37879 ft 480 kts 173°
2026-04-25 22:06 -18.67467 -58.32548 37884 ft 480 kts 173°
2026-04-25 22:07 -18.73005 -58.31877 37878 ft 480 kts 173°
2026-04-25 22:07 -18.80764 -58.30933 37874 ft 480 kts 174°
2026-04-25 22:08 -18.87368 -58.30126 37871 ft 481 kts 174°
2026-04-25 22:08 -18.94016 -58.29318 37877 ft 481 kts 174°
2026-04-25 22:09 -19.00661 -58.28509 37876 ft 481 kts 174°
2026-04-25 22:09 -19.07311 -58.27698 37874 ft 481 kts 174°
2026-04-25 22:10 -19.13917 -58.26892 37878 ft 481 kts 174°
2026-04-25 22:10 -19.20567 -58.26078 37880 ft 481 kts 174°
2026-04-25 22:11 -19.27216 -58.25265 37885 ft 481 kts 174°
2026-04-25 22:11 -19.33863 -58.24451 37879 ft 481 kts 174°
2026-04-25 22:12 -19.40466 -58.23639 37887 ft 481 kts 174°
2026-04-25 22:12 -19.46044 -58.22957 37880 ft 481 kts 174°
2026-04-25 22:13 -19.53778 -58.22011 37880 ft 481 kts 174°
2026-04-25 22:13 -19.60431 -58.21196 37880 ft 481 kts 174°
2026-04-25 22:14 -19.67085 -58.20423 37875 ft 481 kts 176°
2026-04-25 22:14 -19.73702 -58.19805 37880 ft 480 kts 176°
2026-04-25 22:15 -19.80360 -58.19193 37876 ft 480 kts 176°
2026-04-25 22:16 -19.90345 -58.18253 37880 ft 480 kts 176°
2026-04-25 22:16 -19.97004 -58.17618 37878 ft 480 kts 176°
2026-04-25 22:17 -20.03613 -58.16991 37874 ft 480 kts 176°
2026-04-25 22:17 -20.10265 -58.16359 37882 ft 480 kts 176°
2026-04-25 22:18 -20.16917 -58.15726 37882 ft 480 kts 176°
2026-04-25 22:18 -20.23570 -58.15089 37882 ft 480 kts 177°
2026-04-25 22:19 -20.30182 -58.14458 37873 ft 480 kts 177°
2026-04-25 22:19 -20.36840 -58.13824 37874 ft 480 kts 177°
2026-04-25 22:20 -20.43491 -58.13190 37879 ft 480 kts 177°
2026-04-25 22:20 -20.50153 -58.12552 37891 ft 480 kts 177°
2026-04-25 22:21 -20.56762 -58.11919 37884 ft 480 kts 177°
2026-04-25 22:21 -20.63422 -58.11283 37875 ft 480 kts 177°
2026-04-25 22:22 -20.70071 -58.10485 37874 ft 481 kts 175°
2026-04-25 22:22 -20.76714 -58.09628 37879 ft 481 kts 175°
2026-04-25 22:23 -20.83364 -58.08777 37870 ft 482 kts 176°
2026-04-25 22:23 -20.89978 -58.07944 37876 ft 482 kts 176°
2026-04-25 22:24 -20.96634 -58.07107 37885 ft 482 kts 176°
2026-04-25 22:24 -21.03284 -58.06271 37884 ft 482 kts 176°
2026-04-25 22:25 -21.09893 -58.05435 37876 ft 481 kts 176°
2026-04-25 22:25 -21.16534 -58.04600 37881 ft 481 kts 176°
2026-04-25 22:26 -21.23176 -58.03764 37887 ft 481 kts 176°
2026-04-25 22:26 -21.29818 -58.02926 37875 ft 481 kts 176°
2026-04-25 22:27 -21.36409 -58.02090 37881 ft 479 kts 177°
2026-04-25 22:27 -21.43032 -58.01253 37882 ft 479 kts 177°
2026-04-25 22:28 -21.49649 -58.00417 37885 ft 479 kts 177°
2026-04-25 22:28 -21.56269 -57.99579 37884 ft 479 kts 177°
2026-04-25 22:29 -21.62888 -57.98739 37889 ft 479 kts 177°
2026-04-25 22:29 -21.69471 -57.97904 37885 ft 480 kts 177°
2026-04-25 22:30 -21.79414 -57.96641 37883 ft 480 kts 177°
2026-04-25 22:30 -21.84926 -57.95940 37887 ft 480 kts 177°
2026-04-25 22:31 -21.92633 -57.94959 37884 ft 480 kts 177°
2026-04-25 22:31 -21.99261 -57.94114 37884 ft 480 kts 177°
2026-04-25 22:32 -22.05889 -57.93269 37885 ft 480 kts 177°
2026-04-25 22:32 -22.12517 -57.92422 37884 ft 480 kts 177°
2026-04-25 22:33 -22.19153 -57.91571 37886 ft 480 kts 177°
2026-04-25 22:33 -22.25738 -57.90730 37887 ft 480 kts 177°
2026-04-25 22:34 -22.32372 -57.89882 37887 ft 480 kts 177°
2026-04-25 22:34 -22.39005 -57.89032 37887 ft 480 kts 177°
2026-04-25 22:35 -22.45634 -57.88176 37888 ft 479 kts 178°
2026-04-25 22:35 -22.52209 -57.87334 37888 ft 479 kts 178°
2026-04-25 22:36 -22.58826 -57.86485 37891 ft 479 kts 178°
2026-04-25 22:36 -22.65442 -57.85635 37889 ft 479 kts 178°
2026-04-25 22:37 -22.72057 -57.84779 37893 ft 478 kts 178°
2026-04-25 22:37 -22.78661 -57.83929 37895 ft 478 kts 178°
2026-04-25 22:38 -22.85222 -57.83084 37895 ft 478 kts 178°
2026-04-25 22:38 -22.91825 -57.82231 37897 ft 478 kts 178°
2026-04-25 22:39 -22.98437 -57.81375 37900 ft 479 kts 178°
2026-04-25 22:39 -23.05020 -57.80524 37897 ft 480 kts 178°
2026-04-25 22:40 -23.11652 -57.79665 37899 ft 480 kts 178°
2026-04-25 22:40 -23.18286 -57.78805 37898 ft 480 kts 178°
2026-04-25 22:41 -23.24929 -57.77942 37903 ft 482 kts 178°
2026-04-25 22:41 -23.31599 -57.77076 37905 ft 483 kts 178°
2026-04-25 22:42 -23.38269 -57.76209 37905 ft 483 kts 178°
2026-04-25 22:42 -23.44892 -57.75346 37904 ft 483 kts 178°
2026-04-25 22:43 -23.51565 -57.74473 37909 ft 483 kts 178°
2026-04-25 22:43 -23.58235 -57.73604 37903 ft 483 kts 179°
2026-04-25 22:44 -23.64912 -57.72734 37910 ft 483 kts 178°
2026-04-25 22:44 -23.71544 -57.71867 37910 ft 483 kts 178°
2026-04-25 22:45 -23.78225 -57.70991 37915 ft 485 kts 179°
2026-04-25 22:45 -23.84923 -57.70115 37916 ft 485 kts 179°
2026-04-25 22:46 -23.91627 -57.69236 37915 ft 485 kts 179°
2026-04-25 22:46 -23.98282 -57.68363 37917 ft 485 kts 179°
2026-04-25 22:47 -24.04987 -57.67480 37926 ft 485 kts 179°
2026-04-25 22:47 -24.11692 -57.66600 37922 ft 485 kts 179°
2026-04-25 22:48 -24.18400 -57.65718 37921 ft 485 kts 179°
2026-04-25 22:48 -24.25107 -57.64834 37920 ft 485 kts 179°
2026-04-25 22:49 -24.31766 -57.63954 37928 ft 486 kts 179°
2026-04-25 22:49 -24.38480 -57.63071 37923 ft 486 kts 179°
2026-04-25 22:50 -24.45190 -57.62200 37921 ft 485 kts 180°
2026-04-25 22:50 -24.51901 -57.61357 37919 ft 485 kts 180°
2026-04-25 22:51 -24.58564 -57.60521 37924 ft 485 kts 180°
2026-04-25 22:51 -24.65282 -57.59675 37923 ft 485 kts 180°
2026-04-25 22:52 -24.71993 -57.58829 37921 ft 485 kts 180°
2026-04-25 22:52 -24.77570 -57.58124 37943 ft 485 kts 180°
2026-04-25 22:53 -24.85369 -57.57135 37924 ft 485 kts 180°
2026-04-25 22:53 -24.92083 -57.56287 37918 ft 486 kts 180°
2026-04-25 22:54 -24.98795 -57.55438 37909 ft 486 kts 180°
2026-04-25 22:54 -25.05506 -57.54584 37920 ft 485 kts 180°
2026-04-25 22:55 -25.12191 -57.53735 37893 ft 483 kts 180°
2026-04-25 22:55 -25.18825 -57.52896 37881 ft 483 kts 180°
2026-04-25 22:56 -25.25502 -57.52042 37880 ft 483 kts 180°
2026-04-25 22:56 -25.32175 -57.51093 37945 ft 483 kts 180°
2026-04-25 22:57 -25.38830 -57.50132 37937 ft 482 kts 180°
2026-04-25 22:57 -25.45436 -57.49187 37933 ft 482 kts 180°
2026-04-25 22:58 -25.52085 -57.48238 37934 ft 482 kts 180°
2026-04-25 22:58 -25.58732 -57.47284 37943 ft 481 kts 180°
2026-04-25 22:59 -25.65362 -57.46337 37938 ft 480 kts 180°
2026-04-25 22:59 -25.71948 -57.45396 37940 ft 480 kts 180°
2026-04-25 23:00 -25.78580 -57.44446 37934 ft 481 kts 180°
2026-04-25 23:00 -25.85203 -57.43491 37939 ft 479 kts 181°
2026-04-25 23:01 -25.91812 -57.42546 37938 ft 479 kts 181°
2026-04-25 23:01 -25.98413 -57.41599 37935 ft 478 kts 181°
2026-04-25 23:02 -26.04973 -57.40656 37960 ft 479 kts 181°
2026-04-25 23:02 -26.11582 -57.39698 37945 ft 479 kts 181°
2026-04-25 23:03 -26.18188 -57.38744 37944 ft 479 kts 181°
2026-04-25 23:03 -26.24795 -57.37790 37942 ft 478 kts 181°
2026-04-25 23:04 -26.30278 -57.36995 37970 ft 478 kts 181°
2026-04-25 23:04 -26.37944 -57.35883 37941 ft 478 kts 181°
2026-04-25 23:05 -26.44542 -57.34930 37941 ft 478 kts 181°
2026-04-25 23:05 -26.51138 -57.33974 37944 ft 478 kts 181°
2026-04-25 23:06 -26.57692 -57.33018 37958 ft 478 kts 182°
2026-04-25 23:06 -26.64292 -57.32060 37947 ft 478 kts 182°
2026-04-25 23:07 -26.70892 -57.31103 37945 ft 478 kts 182°
2026-04-25 23:07 -26.77491 -57.30143 37945 ft 478 kts 182°
2026-04-25 23:08 -26.84038 -57.29201 37956 ft 477 kts 183°
2026-04-25 23:08 -26.90615 -57.28267 37946 ft 476 kts 183°
2026-04-25 23:09 -26.96080 -57.27491 37942 ft 476 kts 183°
2026-04-25 23:09 -27.02656 -57.26553 37942 ft 476 kts 183°
2026-04-25 23:10 -27.10298 -57.25461 37943 ft 476 kts 183°
2026-04-25 23:10 -27.16873 -57.24520 37944 ft 476 kts 183°
2026-04-25 23:11 -27.23445 -57.23577 37945 ft 476 kts 183°
2026-04-25 23:11 -27.29978 -57.22638 37969 ft 476 kts 183°
2026-04-25 23:12 -27.36540 -57.21694 37947 ft 476 kts 184°
2026-04-25 23:12 -27.43106 -57.20755 37946 ft 476 kts 184°
2026-04-25 23:13 -27.48563 -57.19963 37945 ft 476 kts 183°
2026-04-25 23:13 -27.55130 -57.18986 37948 ft 476 kts 184°
2026-04-25 23:14 -27.62751 -57.17857 37943 ft 475 kts 184°
2026-04-25 23:14 -27.68196 -57.17054 37950 ft 475 kts 184°
2026-04-25 23:15 -27.74750 -57.16086 37942 ft 475 kts 184°
2026-04-25 23:15 -27.81301 -57.15109 37963 ft 474 kts 184°
2026-04-25 23:16 -27.87842 -57.14142 37949 ft 474 kts 185°
2026-04-25 23:16 -27.94381 -57.13175 37945 ft 474 kts 185°
2026-04-25 23:17 -28.00878 -57.12210 37982 ft 474 kts 185°
2026-04-25 23:17 -28.07411 -57.11234 37956 ft 473 kts 185°
2026-04-25 23:18 -28.13959 -57.10262 37949 ft 473 kts 185°
2026-04-25 23:18 -28.20489 -57.09289 37950 ft 473 kts 185°
2026-04-25 23:19 -28.27020 -57.08310 37981 ft 473 kts 185°
2026-04-25 23:19 -28.33560 -57.07330 37959 ft 473 kts 185°
2026-04-25 23:20 -28.40105 -57.06358 37949 ft 477 kts 185°
2026-04-25 23:20 -28.46691 -57.05370 37960 ft 475 kts 185°
2026-04-25 23:21 -28.53222 -57.04381 37966 ft 472 kts 186°
2026-04-25 23:21 -28.59689 -57.03415 37960 ft 471 kts 186°
2026-04-25 23:22 -28.65909 -57.02479 37958 ft 472 kts 186°
2026-04-25 23:22 -29.41308 -57.11226 38123 ft 404 kts 186°